owner,sensor,date,latitude,longitude,vertical_datum,wind_speed,wind_to_direction,wind_speed_of_gust,qcFlag 
DISL,ioos:station:DISL:MBLA:1,2009-07-01T00:00:00Z,30.4367,-88.0117,14.2,5.58,201.3,-9999.0,'1111122,1111122,1111122' 
DISL,ioos:station:DISL:MBLA:1,2009-07-01T00:30:00Z,30.4367,-88.0117,14.2,5.35,208.1,-9999.0,'1111122,1111122,1111122' 
DISL,ioos:station:DISL:MBLA:1,2009-07-01T01:00:00Z,30.4367,-88.0117,14.2,5.71,216.3,-9999.0,'1111122,1111122,1111122' 
DISL,ioos:station:DISL:MBLA:1,2009-07-01T01:30:00Z,30.4367,-88.0117,14.2,4.92,231.3,-9999.0,'1111122,1111122,1111122' 
DISL,ioos:station:DISL:MBLA:1,2009-07-01T02:00:00Z,30.4367,-88.0117,14.2,4.48,225.6,-9999.0,'1111122,1111122,1111122' 
DISL,ioos:station:DISL:MBLA:1,2009-07-01T02:30:00Z,30.4367,-88.0117,14.2,4.83,228.3,-9999.0,'1111122,1111122,1111122' 
DISL,ioos:station:DISL:MBLA:1,2009-07-01T03:00:00Z,30.4367,-88.0117,14.2,5.04,225.9,-9999.0,'1111122,1111122,1111122' 
DISL,ioos:station:DISL:MBLA:1,2009-07-01T03:30:00Z,30.4367,-88.0117,14.2,5.17,227.3,-9999.0,'1111122,1111122,1111122' 
DISL,ioos:station:DISL:MBLA:1,2009-07-01T04:00:00Z,30.4367,-88.0117,14.2,5.44,232.5,-9999.0,'1111122,1111122,1111122' 
DISL,ioos:station:DISL:MBLA:1,2009-07-01T04:30:00Z,30.4367,-88.0117,14.2,5.05,230.7,-9999.0,'1111122,1111122,1111122' 
DISL,ioos:station:DISL:MBLA:1,2009-07-01T05:00:00Z,30.4367,-88.0117,14.2,5.34,226.8,-9999.0,'1111122,1111122,1111122' 
DISL,ioos:station:DISL:MBLA:1,2009-07-01T05:30:00Z,30.4367,-88.0117,14.2,5.18,229.0,-9999.0,'1111122,1111122,1111122' 
DISL,ioos:station:DISL:MBLA:1,2009-07-01T06:00:00Z,30.4367,-88.0117,14.2,5.48,233.3,-9999.0,'1111122,1111122,1111122' 
DISL,ioos:station:DISL:MBLA:1,2009-07-01T06:30:00Z,30.4367,-88.0117,14.2,5.15,232.6,-9999.0,'1111122,1111122,1111122' 
DISL,ioos:station:DISL:MBLA:1,2009-07-01T07:00:00Z,30.4367,-88.0117,14.2,4.74,245.9,-9999.0,'1111122,1111122,1111122' 
DISL,ioos:station:DISL:MBLA:1,2009-07-01T07:30:00Z,30.4367,-88.0117,14.2,2.58,260.3,-9999.0,'1111122,1111122,1111122' 
DISL,ioos:station:DISL:MBLA:1,2009-07-01T08:00:00Z,30.4367,-88.0117,14.2,2.12,269.4,-9999.0,'1111122,1111122,1111122' 
DISL,ioos:station:DISL:MBLA:1,2009-07-01T08:30:00Z,30.4367,-88.0117,14.2,2.94,262.2,-9999.0,'1111122,1111122,1111122' 
DISL,ioos:station:DISL:MBLA:1,2009-07-01T09:00:00Z,30.4367,-88.0117,14.2,2.76,256.7,-9999.0,'1111122,1111122,1111122' 
DISL,ioos:station:DISL:MBLA:1,2009-07-01T09:30:00Z,30.4367,-88.0117,14.2,3.05,281.3,-9999.0,'1111122,1111122,1111122' 
DISL,ioos:station:DISL:MBLA:1,2009-07-01T10:00:00Z,30.4367,-88.0117,14.2,3.2,293.9,-9999.0,'1111122,1111122,1111122' 
DISL,ioos:station:DISL:MBLA:1,2009-07-01T10:30:00Z,30.4367,-88.0117,14.2,3.42,287.3,-9999.0,'1111122,1111122,1111122' 
DISL,ioos:station:DISL:MBLA:1,2009-07-01T11:00:00Z,30.4367,-88.0117,14.2,3.81,291.0,-9999.0,'1111122,1111122,1111122' 
DISL,ioos:station:DISL:MBLA:1,2009-07-01T11:30:00Z,30.4367,-88.0117,14.2,2.27,245.8,-9999.0,'1111122,1111122,1111122' 
DISL,ioos:station:DISL:MBLA:1,2009-07-01T12:00:00Z,30.4367,-88.0117,14.2,2.39,245.3,-9999.0,'1111122,1111122,1111122' 
DISL,ioos:station:DISL:MBLA:1,2009-07-01T12:30:00Z,30.4367,-88.0117,14.2,2.17,235.5,-9999.0,'1111122,1111122,1111122' 
DISL,ioos:station:DISL:MBLA:1,2009-07-01T13:00:00Z,30.4367,-88.0117,14.2,2.88,258.6,-9999.0,'1111122,1111122,1111122' 
DISL,ioos:station:DISL:MBLA:1,2009-07-01T13:30:00Z,30.4367,-88.0117,14.2,3.31,278.9,-9999.0,'1111122,1111122,1111122' 
DISL,ioos:station:DISL:MBLA:1,2009-07-01T14:00:00Z,30.4367,-88.0117,14.2,2.42,249.9,-9999.0,'1111122,1111122,1111122' 
DISL,ioos:station:DISL:MBLA:1,2009-07-01T14:30:00Z,30.4367,-88.0117,14.2,2.28,224.9,-9999.0,'1111122,1111122,1111122' 
DISL,ioos:station:DISL:MBLA:1,2009-07-01T15:00:00Z,30.4367,-88.0117,14.2,2.07,208.5,-9999.0,'1111122,1111122,1111122' 
DISL,ioos:station:DISL:MBLA:1,2009-07-01T15:30:00Z,30.4367,-88.0117,14.2,1.87,205.8,-9999.0,'1111122,1111122,1111122' 
DISL,ioos:station:DISL:MBLA:1,2009-07-01T16:00:00Z,30.4367,-88.0117,14.2,0.9,243.3,-9999.0,'1111122,1111122,1111122' 
DISL,ioos:station:DISL:MBLA:1,2009-07-01T16:30:00Z,30.4367,-88.0117,14.2,0.94,249.7,-9999.0,'1111122,1111122,1111122' 
DISL,ioos:station:DISL:MBLA:1,2009-07-01T17:00:00Z,30.4367,-88.0117,14.2,1.73,172.2,-9999.0,'1111122,1111122,1111122' 
DISL,ioos:station:DISL:MBLA:1,2009-07-01T17:30:00Z,30.4367,-88.0117,14.2,3.1,189.9,-9999.0,'1111122,1111122,1111122' 
DISL,ioos:station:DISL:MBLA:1,2009-07-01T18:00:00Z,30.4367,-88.0117,14.2,3.48,182.9,-9999.0,'1111122,1111122,1111122' 
DISL,ioos:station:DISL:MBLA:1,2009-07-01T18:30:00Z,30.4367,-88.0117,14.2,5.07,185.3,-9999.0,'1111122,1111122,1111122' 
DISL,ioos:station:DISL:MBLA:1,2009-07-01T19:00:00Z,30.4367,-88.0117,14.2,6.17,182.2,-9999.0,'1111122,1111122,1111122' 
DISL,ioos:station:DISL:MBLA:1,2009-07-01T19:30:00Z,30.4367,-88.0117,14.2,7.46,195.5,-9999.0,'1111122,1111122,1111122' 
DISL,ioos:station:DISL:MBLA:1,2009-07-01T20:00:00Z,30.4367,-88.0117,14.2,7.39,203.1,-9999.0,'1111122,1111122,1111122' 
DISL,ioos:station:DISL:MBLA:1,2009-07-01T20:30:00Z,30.4367,-88.0117,14.2,6.9,201.3,-9999.0,'1111122,1111122,1111122' 
DISL,ioos:station:DISL:MBLA:1,2009-07-01T21:00:00Z,30.4367,-88.0117,14.2,7.85,209.3,-9999.0,'1111122,1111122,1111122' 
DISL,ioos:station:DISL:MBLA:1,2009-07-01T21:30:00Z,30.4367,-88.0117,14.2,8.48,207.8,-9999.0,'1111122,1111122,1111122' 
DISL,ioos:station:DISL:MBLA:1,2009-07-01T22:00:00Z,30.4367,-88.0117,14.2,7.54,208.5,-9999.0,'1111122,1111122,1111122' 
DISL,ioos:station:DISL:MBLA:1,2009-07-01T22:30:00Z,30.4367,-88.0117,14.2,7.36,208.0,-9999.0,'1111122,1111122,1111122' 
DISL,ioos:station:DISL:MBLA:1,2009-07-01T23:00:00Z,30.4367,-88.0117,14.2,7.08,213.4,-9999.0,'1111122,1111122,1111122' 
DISL,ioos:station:DISL:MBLA:1,2009-07-01T23:30:00Z,30.4367,-88.0117,14.2,7.31,212.9,-9999.0,'1111122,1111122,1111122' 
DISL,ioos:station:DISL:MBLA:1,2009-07-02T00:00:00Z,30.4367,-88.0117,14.2,7.44,211.3,-9999.0,'1111122,1111122,1111122' 
DISL,ioos:station:DISL:MBLA:1,2009-07-02T00:30:00Z,30.4367,-88.0117,14.2,7.35,200.9,-9999.0,'1111122,1111122,1111122' 
DISL,ioos:station:DISL:MBLA:1,2009-07-02T01:00:00Z,30.4367,-88.0117,14.2,7.55,209.4,-9999.0,'1111122,1111122,1111122' 
DISL,ioos:station:DISL:MBLA:1,2009-07-02T01:30:00Z,30.4367,-88.0117,14.2,8.46,207.5,-9999.0,'1111122,1111122,1111122' 
DISL,ioos:station:DISL:MBLA:1,2009-07-02T02:00:00Z,30.4367,-88.0117,14.2,7.96,205.0,-9999.0,'1111122,1111122,1111122' 
DISL,ioos:station:DISL:MBLA:1,2009-07-02T02:30:00Z,30.4367,-88.0117,14.2,7.97,209.7,-9999.0,'1111122,1111122,1111122' 
DISL,ioos:station:DISL:MBLA:1,2009-07-02T03:00:00Z,30.4367,-88.0117,14.2,8.53,208.8,-9999.0,'1111122,1111122,1111122' 
DISL,ioos:station:DISL:MBLA:1,2009-07-02T03:30:00Z,30.4367,-88.0117,14.2,7.91,211.6,-9999.0,'1111122,1111122,1111122' 
DISL,ioos:station:DISL:MBLA:1,2009-07-02T04:00:00Z,30.4367,-88.0117,14.2,7.78,211.9,-9999.0,'1111122,1111122,1111122' 
DISL,ioos:station:DISL:MBLA:1,2009-07-02T04:30:00Z,30.4367,-88.0117,14.2,8.97,212.6,-9999.0,'1111122,1111122,1111122' 
DISL,ioos:station:DISL:MBLA:1,2009-07-02T05:00:00Z,30.4367,-88.0117,14.2,8.72,215.5,-9999.0,'1111122,1111122,1111122' 
DISL,ioos:station:DISL:MBLA:1,2009-07-02T05:30:00Z,30.4367,-88.0117,14.2,8.31,209.1,-9999.0,'1111122,1111122,1111122' 
DISL,ioos:station:DISL:MBLA:1,2009-07-02T06:00:00Z,30.4367,-88.0117,14.2,8.35,226.4,-9999.0,'1111122,1111122,1111122' 
DISL,ioos:station:DISL:MBLA:1,2009-07-02T06:30:00Z,30.4367,-88.0117,14.2,6.81,232.3,-9999.0,'1111122,1111122,1111122' 
DISL,ioos:station:DISL:MBLA:1,2009-07-02T07:00:00Z,30.4367,-88.0117,14.2,7.19,218.8,-9999.0,'1111122,1111122,1111122' 
DISL,ioos:station:DISL:MBLA:1,2009-07-02T07:30:00Z,30.4367,-88.0117,14.2,7.33,225.5,-9999.0,'1111122,1111122,1111122' 
DISL,ioos:station:DISL:MBLA:1,2009-07-02T08:00:00Z,30.4367,-88.0117,14.2,6.51,221.4,-9999.0,'1111122,1111122,1111122' 
DISL,ioos:station:DISL:MBLA:1,2009-07-02T08:30:00Z,30.4367,-88.0117,14.2,6.37,222.4,-9999.0,'1111122,1111122,1111122' 
DISL,ioos:station:DISL:MBLA:1,2009-07-02T09:00:00Z,30.4367,-88.0117,14.2,5.66,237.7,-9999.0,'1111122,1111122,1111122' 
DISL,ioos:station:DISL:MBLA:1,2009-07-02T09:30:00Z,30.4367,-88.0117,14.2,4.34,229.6,-9999.0,'1111122,1111122,1111122' 
DISL,ioos:station:DISL:MBLA:1,2009-07-02T10:00:00Z,30.4367,-88.0117,14.2,5.21,240.2,-9999.0,'1111122,1111122,1111122' 
DISL,ioos:station:DISL:MBLA:1,2009-07-02T10:30:00Z,30.4367,-88.0117,14.2,4.68,225.6,-9999.0,'1111122,1111122,1111122' 
DISL,ioos:station:DISL:MBLA:1,2009-07-02T11:00:00Z,30.4367,-88.0117,14.2,4.56,234.0,-9999.0,'1111122,1111122,1111122' 
DISL,ioos:station:DISL:MBLA:1,2009-07-02T11:30:00Z,30.4367,-88.0117,14.2,5.11,236.9,-9999.0,'1111122,1111122,1111122' 
DISL,ioos:station:DISL:MBLA:1,2009-07-02T12:00:00Z,30.4367,-88.0117,14.2,4.36,235.6,-9999.0,'1111122,1111122,1111122' 
DISL,ioos:station:DISL:MBLA:1,2009-07-02T12:30:00Z,30.4367,-88.0117,14.2,2.8,251.4,-9999.0,'1111122,1111122,1111122' 
DISL,ioos:station:DISL:MBLA:1,2009-07-02T13:00:00Z,30.4367,-88.0117,14.2,4.6,260.6,-9999.0,'1111122,1111122,1111122' 
DISL,ioos:station:DISL:MBLA:1,2009-07-02T13:30:00Z,30.4367,-88.0117,14.2,5.88,272.2,-9999.0,'1111122,1111122,1111122' 
DISL,ioos:station:DISL:MBLA:1,2009-07-02T14:00:00Z,30.4367,-88.0117,14.2,4.51,255.5,-9999.0,'1111122,1111122,1111122' 
DISL,ioos:station:DISL:MBLA:1,2009-07-02T14:30:00Z,30.4367,-88.0117,14.2,3.52,268.5,-9999.0,'1111122,1111122,1111122' 
DISL,ioos:station:DISL:MBLA:1,2009-07-02T15:00:00Z,30.4367,-88.0117,14.2,2.0,267.8,-9999.0,'1111122,1111122,1111122' 
DISL,ioos:station:DISL:MBLA:1,2009-07-02T15:30:00Z,30.4367,-88.0117,14.2,1.38,267.5,-9999.0,'1111122,1111122,1111122' 
DISL,ioos:station:DISL:MBLA:1,2009-07-02T16:00:00Z,30.4367,-88.0117,14.2,0.1,281.7,-9999.0,'1111122,1111122,1111122' 
DISL,ioos:station:DISL:MBLA:1,2009-07-02T16:30:00Z,30.4367,-88.0117,14.2,0.66,253.9,-9999.0,'1111122,1111122,1111122' 
DISL,ioos:station:DISL:MBLA:1,2009-07-02T17:00:00Z,30.4367,-88.0117,14.2,4.44,191.1,-9999.0,'1111122,1111122,1111122' 
DISL,ioos:station:DISL:MBLA:1,2009-07-02T17:30:00Z,30.4367,-88.0117,14.2,6.33,197.1,-9999.0,'1111122,1111122,1111122' 
DISL,ioos:station:DISL:MBLA:1,2009-07-02T18:00:00Z,30.4367,-88.0117,14.2,6.51,196.3,-9999.0,'1111122,1111122,1111122' 
DISL,ioos:station:DISL:MBLA:1,2009-07-02T18:30:00Z,30.4367,-88.0117,14.2,7.15,198.1,-9999.0,'1111122,1111122,1111122' 
DISL,ioos:station:DISL:MBLA:1,2009-07-02T19:00:00Z,30.4367,-88.0117,14.2,8.62,197.9,-9999.0,'1111122,1111122,1111122' 
DISL,ioos:station:DISL:MBLA:1,2009-07-02T19:30:00Z,30.4367,-88.0117,14.2,10.02,206.0,-9999.0,'1111122,1111122,1111122' 
DISL,ioos:station:DISL:MBLA:1,2009-07-02T20:00:00Z,30.4367,-88.0117,14.2,11.37,216.9,-9999.0,'1111122,1111122,1111122' 
DISL,ioos:station:DISL:MBLA:1,2009-07-02T20:30:00Z,30.4367,-88.0117,14.2,11.37,215.8,-9999.0,'1111122,1111122,1111122' 
DISL,ioos:station:DISL:MBLA:1,2009-07-02T21:00:00Z,30.4367,-88.0117,14.2,12.16,214.2,-9999.0,'1111122,1111122,1111122' 
DISL,ioos:station:DISL:MBLA:1,2009-07-02T21:30:00Z,30.4367,-88.0117,14.2,11.84,214.0,-9999.0,'1111122,1111122,1111122' 
DISL,ioos:station:DISL:MBLA:1,2009-07-02T22:00:00Z,30.4367,-88.0117,14.2,12.37,214.3,-9999.0,'1111122,1111122,1111122' 
DISL,ioos:station:DISL:MBLA:1,2009-07-02T22:30:00Z,30.4367,-88.0117,14.2,11.56,214.2,-9999.0,'1111122,1111122,1111122' 
DISL,ioos:station:DISL:MBLA:1,2009-07-02T23:00:00Z,30.4367,-88.0117,14.2,12.25,216.9,-9999.0,'1111122,1111122,1111122' 
DISL,ioos:station:DISL:MBLA:1,2009-07-02T23:30:00Z,30.4367,-88.0117,14.2,12.82,236.8,-9999.0,'1111122,1111122,1111122' 
DISL,ioos:station:DISL:MBLA:1,2009-07-03T00:00:00Z,30.4367,-88.0117,14.2,10.62,258.0,-9999.0,'1111122,1111122,1111122' 
DISL,ioos:station:DISL:MBLA:1,2009-07-03T00:30:00Z,30.4367,-88.0117,14.2,4.17,158.7,-9999.0,'1111122,1111122,1111122' 
DISL,ioos:station:DISL:MBLA:1,2009-07-03T01:00:00Z,30.4367,-88.0117,14.2,3.04,227.1,-9999.0,'1111122,1111122,1111122' 
DISL,ioos:station:DISL:MBLA:1,2009-07-03T01:30:00Z,30.4367,-88.0117,14.2,2.37,266.6,-9999.0,'1111122,1111122,1111122' 
DISL,ioos:station:DISL:MBLA:1,2009-07-03T02:00:00Z,30.4367,-88.0117,14.2,3.34,228.0,-9999.0,'1111122,1111122,1111122' 
DISL,ioos:station:DISL:MBLA:1,2009-07-03T02:30:00Z,30.4367,-88.0117,14.2,6.73,230.5,-9999.0,'1111122,1111122,1111122' 
DISL,ioos:station:DISL:MBLA:1,2009-07-03T03:00:00Z,30.4367,-88.0117,14.2,5.66,246.0,-9999.0,'1111122,1111122,1111122' 
DISL,ioos:station:DISL:MBLA:1,2009-07-03T03:30:00Z,30.4367,-88.0117,14.2,2.38,281.1,-9999.0,'1111122,1111122,1111122' 
DISL,ioos:station:DISL:MBLA:1,2009-07-03T04:00:00Z,30.4367,-88.0117,14.2,5.16,287.4,-9999.0,'1111122,1111122,1111122' 
DISL,ioos:station:DISL:MBLA:1,2009-07-03T04:30:00Z,30.4367,-88.0117,14.2,6.55,280.1,-9999.0,'1111122,1111122,1111122' 
DISL,ioos:station:DISL:MBLA:1,2009-07-03T05:00:00Z,30.4367,-88.0117,14.2,3.55,284.2,-9999.0,'1111122,1111122,1111122' 
DISL,ioos:station:DISL:MBLA:1,2009-07-03T05:30:00Z,30.4367,-88.0117,14.2,3.94,293.6,-9999.0,'1111122,1111122,1111122' 
DISL,ioos:station:DISL:MBLA:1,2009-07-03T06:00:00Z,30.4367,-88.0117,14.2,4.43,314.9,-9999.0,'1111122,1111122,1111122' 
DISL,ioos:station:DISL:MBLA:1,2009-07-03T06:30:00Z,30.4367,-88.0117,14.2,2.64,320.6,-9999.0,'1111122,1111122,1111122' 
DISL,ioos:station:DISL:MBLA:1,2009-07-03T07:00:00Z,30.4367,-88.0117,14.2,2.2,264.6,-9999.0,'1111122,1111122,1111122' 
DISL,ioos:station:DISL:MBLA:1,2009-07-03T07:30:00Z,30.4367,-88.0117,14.2,2.91,254.1,-9999.0,'1111122,1111122,1111122' 
DISL,ioos:station:DISL:MBLA:1,2009-07-03T08:00:00Z,30.4367,-88.0117,14.2,4.62,256.1,-9999.0,'1111122,1111122,1111122' 
DISL,ioos:station:DISL:MBLA:1,2009-07-03T08:30:00Z,30.4367,-88.0117,14.2,6.41,261.6,-9999.0,'1111122,1111122,1111122' 
DISL,ioos:station:DISL:MBLA:1,2009-07-03T09:00:00Z,30.4367,-88.0117,14.2,5.83,267.6,-9999.0,'1111122,1111122,1111122' 
DISL,ioos:station:DISL:MBLA:1,2009-07-03T09:30:00Z,30.4367,-88.0117,14.2,5.89,272.3,-9999.0,'1111122,1111122,1111122' 
DISL,ioos:station:DISL:MBLA:1,2009-07-03T10:00:00Z,30.4367,-88.0117,14.2,5.45,281.7,-9999.0,'1111122,1111122,1111122' 
DISL,ioos:station:DISL:MBLA:1,2009-07-03T10:30:00Z,30.4367,-88.0117,14.2,6.08,273.9,-9999.0,'1111122,1111122,1111122' 
DISL,ioos:station:DISL:MBLA:1,2009-07-03T11:00:00Z,30.4367,-88.0117,14.2,6.44,295.3,-9999.0,'1111122,1111122,1111122' 
DISL,ioos:station:DISL:MBLA:1,2009-07-03T11:30:00Z,30.4367,-88.0117,14.2,6.12,296.7,-9999.0,'1111122,1111122,1111122' 
DISL,ioos:station:DISL:MBLA:1,2009-07-03T12:00:00Z,30.4367,-88.0117,14.2,4.43,274.0,-9999.0,'1111122,1111122,1111122' 
DISL,ioos:station:DISL:MBLA:1,2009-07-03T12:30:00Z,30.4367,-88.0117,14.2,4.95,306.5,-9999.0,'1111122,1111122,1111122' 
DISL,ioos:station:DISL:MBLA:1,2009-07-03T13:00:00Z,30.4367,-88.0117,14.2,4.54,316.6,-9999.0,'1111122,1111122,1111122' 
DISL,ioos:station:DISL:MBLA:1,2009-07-03T13:30:00Z,30.4367,-88.0117,14.2,4.06,330.6,-9999.0,'1111122,1111122,1111122' 
DISL,ioos:station:DISL:MBLA:1,2009-07-03T14:00:00Z,30.4367,-88.0117,14.2,4.01,349.5,-9999.0,'1111122,1111122,1111122' 
DISL,ioos:station:DISL:MBLA:1,2009-07-03T14:30:00Z,30.4367,-88.0117,14.2,4.82,357.9,-9999.0,'1111122,1111122,1111122' 
DISL,ioos:station:DISL:MBLA:1,2009-07-03T15:00:00Z,30.4367,-88.0117,14.2,4.4,358.5,-9999.0,'1111122,1111122,1111122' 
DISL,ioos:station:DISL:MBLA:1,2009-07-03T15:30:00Z,30.4367,-88.0117,14.2,3.34,1.728,-9999.0,'1111122,1111122,1111122' 
DISL,ioos:station:DISL:MBLA:1,2009-07-03T16:00:00Z,30.4367,-88.0117,14.2,2.41,358.6,-9999.0,'1111122,1111122,1111122' 
DISL,ioos:station:DISL:MBLA:1,2009-07-03T16:30:00Z,30.4367,-88.0117,14.2,2.01,340.7,-9999.0,'1111122,1111122,1111122' 
DISL,ioos:station:DISL:MBLA:1,2009-07-03T17:00:00Z,30.4367,-88.0117,14.2,1.91,306.7,-9999.0,'1111122,1111122,1111122' 
DISL,ioos:station:DISL:MBLA:1,2009-07-03T17:30:00Z,30.4367,-88.0117,14.2,2.18,264.0,-9999.0,'1111122,1111122,1111122' 
DISL,ioos:station:DISL:MBLA:1,2009-07-03T18:00:00Z,30.4367,-88.0117,14.2,3.02,235.2,-9999.0,'1111122,1111122,1111122' 
DISL,ioos:station:DISL:MBLA:1,2009-07-03T18:30:00Z,30.4367,-88.0117,14.2,2.32,237.0,-9999.0,'1111122,1111122,1111122' 
DISL,ioos:station:DISL:MBLA:1,2009-07-03T19:00:00Z,30.4367,-88.0117,14.2,1.81,229.2,-9999.0,'1111122,1111122,1111122' 
DISL,ioos:station:DISL:MBLA:1,2009-07-03T19:30:00Z,30.4367,-88.0117,14.2,2.57,214.8,-9999.0,'1111122,1111122,1111122' 
DISL,ioos:station:DISL:MBLA:1,2009-07-03T20:00:00Z,30.4367,-88.0117,14.2,1.64,211.3,-9999.0,'1111122,1111122,1111122' 
DISL,ioos:station:DISL:MBLA:1,2009-07-03T20:30:00Z,30.4367,-88.0117,14.2,1.9,164.1,-9999.0,'1111122,1111122,1111122' 
DISL,ioos:station:DISL:MBLA:1,2009-07-03T21:00:00Z,30.4367,-88.0117,14.2,2.6,182.9,-9999.0,'1111122,1111122,1111122' 
DISL,ioos:station:DISL:MBLA:1,2009-07-03T21:30:00Z,30.4367,-88.0117,14.2,4.03,193.4,-9999.0,'1111122,1111122,1111122' 
DISL,ioos:station:DISL:MBLA:1,2009-07-03T22:00:00Z,30.4367,-88.0117,14.2,3.75,198.4,-9999.0,'1111122,1111122,1111122' 
DISL,ioos:station:DISL:MBLA:1,2009-07-03T22:30:00Z,30.4367,-88.0117,14.2,4.89,216.1,-9999.0,'1111122,1111122,1111122' 
DISL,ioos:station:DISL:MBLA:1,2009-07-03T23:00:00Z,30.4367,-88.0117,14.2,5.76,223.5,-9999.0,'1111122,1111122,1111122' 
DISL,ioos:station:DISL:MBLA:1,2009-07-03T23:30:00Z,30.4367,-88.0117,14.2,6.61,225.2,-9999.0,'1111122,1111122,1111122' 
DISL,ioos:station:DISL:MBLA:1,2009-07-04T00:00:00Z,30.4367,-88.0117,14.2,7.09,218.8,-9999.0,'1111122,1111122,1111122' 
DISL,ioos:station:DISL:MBLA:1,2009-07-04T00:30:00Z,30.4367,-88.0117,14.2,6.75,223.7,-9999.0,'1111122,1111122,1111122' 
DISL,ioos:station:DISL:MBLA:1,2009-07-04T01:00:00Z,30.4367,-88.0117,14.2,5.02,237.6,-9999.0,'1111122,1111122,1111122' 
DISL,ioos:station:DISL:MBLA:1,2009-07-04T01:30:00Z,30.4367,-88.0117,14.2,4.7,244.9,-9999.0,'1111122,1111122,1111122' 
DISL,ioos:station:DISL:MBLA:1,2009-07-04T02:00:00Z,30.4367,-88.0117,14.2,4.69,252.3,-9999.0,'1111122,1111122,1111122' 
DISL,ioos:station:DISL:MBLA:1,2009-07-04T02:30:00Z,30.4367,-88.0117,14.2,4.65,250.3,-9999.0,'1111122,1111122,1111122' 
DISL,ioos:station:DISL:MBLA:1,2009-07-04T03:00:00Z,30.4367,-88.0117,14.2,3.82,242.1,-9999.0,'1111122,1111122,1111122' 
DISL,ioos:station:DISL:MBLA:1,2009-07-04T03:30:00Z,30.4367,-88.0117,14.2,3.57,257.1,-9999.0,'1111122,1111122,1111122' 
DISL,ioos:station:DISL:MBLA:1,2009-07-04T04:00:00Z,30.4367,-88.0117,14.2,2.29,282.9,-9999.0,'1111122,1111122,1111122' 
DISL,ioos:station:DISL:MBLA:1,2009-07-04T04:30:00Z,30.4367,-88.0117,14.2,1.61,291.3,-9999.0,'1111122,1111122,1111122' 
DISL,ioos:station:DISL:MBLA:1,2009-07-04T05:00:00Z,30.4367,-88.0117,14.2,2.2,306.6,-9999.0,'1111122,1111122,1111122' 
DISL,ioos:station:DISL:MBLA:1,2009-07-04T05:30:00Z,30.4367,-88.0117,14.2,1.48,333.5,-9999.0,'1111122,1111122,1111122' 
DISL,ioos:station:DISL:MBLA:1,2009-07-04T06:00:00Z,30.4367,-88.0117,14.2,1.95,302.5,-9999.0,'1111122,1111122,1111122' 
DISL,ioos:station:DISL:MBLA:1,2009-07-04T06:30:00Z,30.4367,-88.0117,14.2,2.51,329.3,-9999.0,'1111122,1111122,1111122' 
DISL,ioos:station:DISL:MBLA:1,2009-07-04T07:00:00Z,30.4367,-88.0117,14.2,2.87,344.1,-9999.0,'1111122,1111122,1111122' 
DISL,ioos:station:DISL:MBLA:1,2009-07-04T07:30:00Z,30.4367,-88.0117,14.2,3.87,64.11,-9999.0,'1111122,1111122,1111122' 
DISL,ioos:station:DISL:MBLA:1,2009-07-04T08:00:00Z,30.4367,-88.0117,14.2,2.8,55.25,-9999.0,'1111122,1111122,1111122' 
DISL,ioos:station:DISL:MBLA:1,2009-07-04T08:30:00Z,30.4367,-88.0117,14.2,2.6,57.4,-9999.0,'1111122,1111122,1111122' 
DISL,ioos:station:DISL:MBLA:1,2009-07-04T09:00:00Z,30.4367,-88.0117,14.2,2.12,65.46,-9999.0,'1111122,1111122,1111122' 
DISL,ioos:station:DISL:MBLA:1,2009-07-04T09:30:00Z,30.4367,-88.0117,14.2,1.88,68.2,-9999.0,'1111122,1111122,1111122' 
DISL,ioos:station:DISL:MBLA:1,2009-07-04T10:00:00Z,30.4367,-88.0117,14.2,2.58,91.9,-9999.0,'1111122,1111122,1111122' 
DISL,ioos:station:DISL:MBLA:1,2009-07-04T10:30:00Z,30.4367,-88.0117,14.2,3.21,71.2,-9999.0,'1111122,1111122,1111122' 
DISL,ioos:station:DISL:MBLA:1,2009-07-04T11:00:00Z,30.4367,-88.0117,14.2,2.34,80.5,-9999.0,'1111122,1111122,1111122' 
DISL,ioos:station:DISL:MBLA:1,2009-07-04T11:30:00Z,30.4367,-88.0117,14.2,2.59,91.1,-9999.0,'1111122,1111122,1111122' 
DISL,ioos:station:DISL:MBLA:1,2009-07-04T12:00:00Z,30.4367,-88.0117,14.2,2.43,104.2,-9999.0,'1111122,1111122,1111122' 
DISL,ioos:station:DISL:MBLA:1,2009-07-04T12:30:00Z,30.4367,-88.0117,14.2,2.38,93.3,-9999.0,'1111122,1111122,1111122' 
DISL,ioos:station:DISL:MBLA:1,2009-07-04T13:00:00Z,30.4367,-88.0117,14.2,2.96,74.6,-9999.0,'1111122,1111122,1111122' 
DISL,ioos:station:DISL:MBLA:1,2009-07-04T13:30:00Z,30.4367,-88.0117,14.2,2.81,77.0,-9999.0,'1111122,1111122,1111122' 
DISL,ioos:station:DISL:MBLA:1,2009-07-04T14:00:00Z,30.4367,-88.0117,14.2,2.81,81.7,-9999.0,'1111122,1111122,1111122' 
DISL,ioos:station:DISL:MBLA:1,2009-07-04T14:30:00Z,30.4367,-88.0117,14.2,3.5,103.6,-9999.0,'1111122,1111122,1111122' 
DISL,ioos:station:DISL:MBLA:1,2009-07-04T15:00:00Z,30.4367,-88.0117,14.2,4.28,113.7,-9999.0,'1111122,1111122,1111122' 
DISL,ioos:station:DISL:MBLA:1,2009-07-04T15:30:00Z,30.4367,-88.0117,14.2,4.06,122.7,-9999.0,'1111122,1111122,1111122' 
DISL,ioos:station:DISL:MBLA:1,2009-07-04T16:00:00Z,30.4367,-88.0117,14.2,4.35,133.4,-9999.0,'1111122,1111122,1111122' 
DISL,ioos:station:DISL:MBLA:1,2009-07-04T16:30:00Z,30.4367,-88.0117,14.2,4.39,138.6,-9999.0,'1111122,1111122,1111122' 
DISL,ioos:station:DISL:MBLA:1,2009-07-04T17:00:00Z,30.4367,-88.0117,14.2,4.98,150.3,-9999.0,'1111122,1111122,1111122' 
DISL,ioos:station:DISL:MBLA:1,2009-07-04T17:30:00Z,30.4367,-88.0117,14.2,6.29,164.6,-9999.0,'1111122,1111122,1111122' 
DISL,ioos:station:DISL:MBLA:1,2009-07-04T18:00:00Z,30.4367,-88.0117,14.2,6.72,163.9,-9999.0,'1111122,1111122,1111122' 
DISL,ioos:station:DISL:MBLA:1,2009-07-04T18:30:00Z,30.4367,-88.0117,14.2,6.0,170.2,-9999.0,'1111122,1111122,1111122' 
DISL,ioos:station:DISL:MBLA:1,2009-07-04T19:00:00Z,30.4367,-88.0117,14.2,6.46,170.6,-9999.0,'1111122,1111122,1111122' 
DISL,ioos:station:DISL:MBLA:1,2009-07-04T19:30:00Z,30.4367,-88.0117,14.2,5.33,233.9,-9999.0,'1111122,1111122,1111122' 
DISL,ioos:station:DISL:MBLA:1,2009-07-04T20:00:00Z,30.4367,-88.0117,14.2,6.22,186.6,-9999.0,'1111122,1111122,1111122' 
DISL,ioos:station:DISL:MBLA:1,2009-07-04T20:30:00Z,30.4367,-88.0117,14.2,4.38,179.9,-9999.0,'1111122,1111122,1111122' 
DISL,ioos:station:DISL:MBLA:1,2009-07-04T21:00:00Z,30.4367,-88.0117,14.2,2.93,186.2,-9999.0,'1111122,1111122,1111122' 
DISL,ioos:station:DISL:MBLA:1,2009-07-04T21:30:00Z,30.4367,-88.0117,14.2,3.9,194.0,-9999.0,'1111122,1111122,1111122' 
DISL,ioos:station:DISL:MBLA:1,2009-07-04T22:00:00Z,30.4367,-88.0117,14.2,6.68,220.9,-9999.0,'1111122,1111122,1111122' 
DISL,ioos:station:DISL:MBLA:1,2009-07-04T22:30:00Z,30.4367,-88.0117,14.2,7.74,194.3,-9999.0,'1111122,1111122,1111122' 
DISL,ioos:station:DISL:MBLA:1,2009-07-04T23:00:00Z,30.4367,-88.0117,14.2,7.32,215.5,-9999.0,'1111122,1111122,1111122' 
DISL,ioos:station:DISL:MBLA:1,2009-07-04T23:30:00Z,30.4367,-88.0117,14.2,6.51,212.8,-9999.0,'1111122,1111122,1111122' 
DISL,ioos:station:DISL:MBLA:1,2009-07-05T00:00:00Z,30.4367,-88.0117,14.2,6.22,262.5,-9999.0,'1111122,1111122,1111122' 
DISL,ioos:station:DISL:MBLA:1,2009-07-05T00:30:00Z,30.4367,-88.0117,14.2,8.09,263.4,-9999.0,'1111122,1111122,1111122' 
DISL,ioos:station:DISL:MBLA:1,2009-07-05T01:00:00Z,30.4367,-88.0117,14.2,6.24,268.2,-9999.0,'1111122,1111122,1111122' 
DISL,ioos:station:DISL:MBLA:1,2009-07-05T01:30:00Z,30.4367,-88.0117,14.2,3.64,246.5,-9999.0,'1111122,1111122,1111122' 
DISL,ioos:station:DISL:MBLA:1,2009-07-05T02:00:00Z,30.4367,-88.0117,14.2,2.45,274.2,-9999.0,'1111122,1111122,1111122' 
DISL,ioos:station:DISL:MBLA:1,2009-07-05T02:30:00Z,30.4367,-88.0117,14.2,1.89,259.2,-9999.0,'1111122,1111122,1111122' 
DISL,ioos:station:DISL:MBLA:1,2009-07-05T03:00:00Z,30.4367,-88.0117,14.2,2.55,203.7,-9999.0,'1111122,1111122,1111122' 
DISL,ioos:station:DISL:MBLA:1,2009-07-05T03:30:00Z,30.4367,-88.0117,14.2,3.11,203.7,-9999.0,'1111122,1111122,1111122' 